Dublin, Ireland

2:45 AM IST on May 25, 2017 (GMT +0100)
Dublin International

Weather History for EIDW - January, 2012

Change the Weather History Date:

Friday, January 27, 2012

  Actual Average Record
Temperature  
Mean Temperature 38 °F -  
Max Temperature 43 °F 46 °F 57 °F (2002)
Min Temperature 33 °F 36 °F 30 °F (2000)
Degree Days  
Heating Degree Days 27    
Moisture  
Dew Point 35 °F    
Average Humidity 89    
Maximum Humidity 100    
Minimum Humidity 77    
Precipitation  
Precipitation 0.00 in 0.07 in - ()
Sea Level Pressure  
Sea Level Pressure 30.06 in    
Wind  
Wind Speed 17 mph ()    
Max Wind Speed 26 mph    
Max Gust Speed -    
Visibility 7.3 miles    
Events Rain    
Averages and records for this station are not official NWS values.
T = Trace of Precipitation, MM = Missing Value Source: Averaged Metar Reports

Daily Weather History Graph

Daily Weather History Graph

Search for Another Location

Airport or City:

Trip Planner

Search our weather history database for the weather conditions in past years. The results will help you decide how hot, cold, wet, or windy it might be!

Date:

Astronomy

Jan. 27, 2012 Rise Set
Actual Time 8:18 AM GMT 4:57 PM GMT
Civil Twilight 7:39 AM GMT 5:36 PM GMT
Nautical Twilight 6:57 AM GMT 6:18 PM GMT
Astronomical Twilight 6:16 AM GMT 6:59 PM GMT
Moon 9:21 AM GMT (1/27) 10:25 PM GMT (1/27)
Length of Visible Light 9h 56m
Length of Day
8h 38m
Waxing Crescent, 18% of the Moon is Illuminated
Jan 27
Waxing Crescent
Jan 31
First Quarter
Feb 7
Full
Feb 14
Last Quarter
Feb 21
New

Hourly Weather History & Observations

Time (GMT) Temp. Windchill Dew Point Humidity Pressure Visibility Wind Dir Wind Speed Gust Speed Precip Events Conditions
12:00 AM 38 °F - 35 °F 84% 29.85 in 19 mi WSW 22.4 mph - -   Partly Cloudy
12:00 AM 37.4 °F 26.6 °F 35.6 °F 93% 29.83 in 6.2 mi WSW 21.9 mph - N/A   Mostly Cloudy
12:30 AM 37.4 °F 26.4 °F 35.6 °F 93% 29.83 in 6.2 mi West 23.0 mph - N/A   Mostly Cloudy
1:00 AM 37.4 °F 26.6 °F 35.6 °F 93% 29.86 in 6.2 mi West 21.9 mph - N/A   Scattered Clouds
1:30 AM 37.4 °F 26.6 °F 35.6 °F 93% 29.89 in 6.2 mi West 21.9 mph - N/A   Scattered Clouds
2:00 AM 37.4 °F 27.5 °F 35.6 °F 93% 29.89 in 6.2 mi West 18.4 mph - N/A   Scattered Clouds
2:30 AM 37.4 °F 27.5 °F 35.6 °F 93% 29.92 in 6.2 mi WSW 18.4 mph - N/A   Scattered Clouds
3:00 AM 37.4 °F 27.2 °F 33.8 °F 87% 29.92 in 6.2 mi WSW 19.6 mph - N/A   Scattered Clouds
3:30 AM 37.4 °F 27.8 °F 33.8 °F 87% 29.95 in 6.2 mi WSW 17.3 mph - N/A   Scattered Clouds
4:00 AM 37.4 °F 27.5 °F 33.8 °F 87% 29.95 in 6.2 mi West 18.4 mph - N/A   Scattered Clouds
4:30 AM 37.4 °F 28.2 °F 33.8 °F 87% 29.95 in 6.2 mi West 16.1 mph - N/A   Mostly Cloudy
5:00 AM 37.4 °F 27.8 °F 33.8 °F 87% 29.98 in 6.2 mi West 17.3 mph - N/A   Mostly Cloudy
5:30 AM 35.6 °F 26.2 °F 33.8 °F 93% 29.98 in 6.2 mi WSW 15.0 mph - N/A   Mostly Cloudy
6:00 AM 35 °F - 33 °F 92% 30.01 in 19 mi SW 11.2 mph - -   Scattered Clouds
6:00 AM 35.6 °F 27.5 °F 33.8 °F 93% 29.98 in 6.2 mi SW 11.5 mph - N/A   Scattered Clouds
6:30 AM 35.6 °F 25.2 °F 33.8 °F 93% 30.01 in 6.2 mi WSW 18.4 mph - N/A   Scattered Clouds
7:00 AM 35.6 °F 24.8 °F 33.8 °F 93% 30.01 in 6.2 mi WSW 19.6 mph - N/A   Partly Cloudy
7:30 AM 35.6 °F 24.0 °F 33.8 °F 93% 30.01 in 6.2 mi WSW 23.0 mph - N/A   Partly Cloudy
8:00 AM 35.6 °F 24.5 °F 33.8 °F 93% 30.01 in 6.2 mi WSW 20.7 mph - N/A   Partly Cloudy
8:30 AM 37.4 °F 27.5 °F 33.8 °F 87% 30.04 in 6.2 mi WSW 18.4 mph - N/A   Partly Cloudy
9:00 AM 37.4 °F 27.8 °F 33.8 °F 87% 30.04 in 6.2 mi WSW 17.3 mph - N/A   Partly Cloudy
9:30 AM 37.4 °F 27.5 °F 33.8 °F 87% 30.04 in 6.2 mi WSW 18.4 mph - N/A   Scattered Clouds
10:00 AM 37.4 °F 26.6 °F 35.6 °F 93% 30.04 in 6.2 mi WSW 21.9 mph - N/A   Scattered Clouds
10:30 AM 39.2 °F 28.7 °F 35.6 °F 87% 30.04 in 6.2 mi WSW 23.0 mph - N/A   Scattered Clouds
11:00 AM 41.0 °F 30.5 °F 35.6 °F 81% 30.04 in 6.2 mi West 26.5 mph - N/A   Scattered Clouds
11:30 AM 41.0 °F 31.1 °F 35.6 °F 81% 30.04 in 6.2 mi WSW 23.0 mph - N/A   Scattered Clouds
12:00 PM 41 °F - 36 °F 77% 30.07 in 19 mi West 24.6 mph - - Rain Light Rain Showers
12:00 PM 41.0 °F 30.7 °F 37.4 °F 87% 30.04 in 6.2 mi West 25.3 mph - N/A   Mostly Cloudy
12:30 PM 42.8 °F 33.5 °F 37.4 °F 81% 30.04 in 6.2 mi West 23.0 mph - N/A Rain Light Rain Showers
1:00 PM 42.8 °F 34.0 °F 37.4 °F 81% 30.06 in 6.2 mi West 20.7 mph - N/A   Mostly Cloudy
1:30 PM 42.8 °F 34.5 °F 37.4 °F 81% 30.06 in 6.2 mi West 18.4 mph - N/A Rain Light Rain Showers
2:00 PM 42.8 °F 34.3 °F 37.4 °F 81% 30.06 in 6.2 mi West 19.6 mph - N/A   Mostly Cloudy
2:30 PM 42.8 °F 34.3 °F 37.4 °F 81% 30.06 in 6.2 mi West 19.6 mph - N/A   Scattered Clouds
3:00 PM 41.0 °F 31.4 °F 37.4 °F 87% 30.06 in 6.2 mi West 21.9 mph - N/A   Scattered Clouds
3:30 PM 41.0 °F 32.5 °F 35.6 °F 81% 30.09 in 6.2 mi West 17.3 mph - N/A   Scattered Clouds
4:30 PM 41.0 °F 33.5 °F 37.4 °F 87% 30.12 in 6.2 mi WNW 13.8 mph - N/A   Mostly Cloudy
5:00 PM 41.0 °F 32.8 °F 37.4 °F 87% 30.12 in 6.2 mi West 16.1 mph - N/A   Partly Cloudy
5:30 PM 39.2 °F 33.6 °F 37.4 °F 93% 30.15 in 6.2 mi WNW 8.1 mph - N/A   Mostly Cloudy
6:00 PM 39 °F - 37 °F 89% 30.18 in 19 mi WNW 11.2 mph - -   Partly Cloudy
6:00 PM 39.2 °F 32.0 °F 37.4 °F 93% 30.15 in 6.2 mi WNW 11.5 mph - N/A   Scattered Clouds
6:30 PM 39.2 °F 30.8 °F 37.4 °F 93% 30.15 in 6.2 mi West 15.0 mph - N/A   Mostly Cloudy
7:00 PM 39.2 °F 31.6 °F 37.4 °F 93% 30.18 in 6.2 mi West 12.7 mph - N/A   Partly Cloudy
7:30 PM 37.4 °F 29.3 °F 35.6 °F 93% 30.21 in 6.2 mi WNW 12.7 mph - N/A   Partly Cloudy
8:00 PM 37.4 °F 29.8 °F 35.6 °F 93% 30.21 in 6.2 mi WNW 11.5 mph - N/A   Scattered Clouds
8:30 PM 35.6 °F 29.2 °F 33.8 °F 93% 30.24 in 6.2 mi West 8.1 mph - N/A   Scattered Clouds
9:00 PM 35.6 °F 27.5 °F 33.8 °F 93% 30.24 in 6.2 mi West 11.5 mph - N/A   Partly Cloudy
9:30 PM 35.6 °F 28.0 °F 33.8 °F 93% 30.27 in 6.2 mi West 10.4 mph - N/A   Partly Cloudy
10:00 PM 33.8 °F 24.8 °F 33.8 °F 100% 30.27 in - WNW 12.7 mph - N/A   Clear
10:30 PM 33.8 °F 27.0 °F 33.8 °F 100% 30.30 in - WNW 8.1 mph - N/A   Clear
11:00 PM 33.8 °F 27.0 °F 32.0 °F 93% 30.30 in - WNW 8.1 mph - N/A   Clear
11:30 PM 33.8 °F 26.4 °F 32.0 °F 93% 30.30 in - WNW 9.2 mph - N/A   Clear